XIAOXIANG 1-08 (44706 NORAD) Tracking and Keplerian Element Data

This shows tracking and keplerian element data for the satellite.

Feedback or suggestion? Click here.




ElementValue
Catalog44706
NameXIAOXIANG 1-08
Epoch Orbit453
Epoch Day336.95934122
Epoch Year2019
RAAN49.6506
Inclination97.4916
Eccentricity0.0015745
Argument of Perigee168.791
Mean Anonmoly305.5883
Mean Motion15.23519063
Decay Rate1.429E-05
L11 44706U 19072D 19336.95934122 .00001429 00000-0 62707-4 0 9999
L22 44706 97.4916 49.6506 0015745 168.7910 305.5883 15.23519063 4532

Live tracking and technical data element details for XIAOXIANG 1-08 (NORAD 44706). XIAOXIANG 1-08 can be tracked NOW for your location showing map with azimuth and elevation plus other details from your city location.

Track the satellite on the map from your city or location and see movement details for azimuth, elevation, latitude, longitude, range, height, and movement on the map or in text.







IsCatalogInMostPopularTable: catalog: 44706, numindb: 10
Update: records affected: 1



GetName: 44706 XIAOXIANG 1-08

Hit Count: updated at: Thu, 05 Dec 2019 17:34:18 GMT